Regional Weather Roundup
Issued by NWS

Current Version | Previous Version | Text Only | Print | Product List | Glossary On
Versions: 1 2 3 4 5 6 7 8 9 10 11 12 13 14 15 16 17 18 19 20 21 22 23 24 25 26 27
000
ASUS45 KREV 180110
RWRNV
NEVADA REGIONAL WEATHER ROUNDUP
NATIONAL WEATHER SERVICE RENO NV
600 PM PDT THU APR 17 2014

NOTE: "FAIR" INDICATES FEW OR NO CLOUDS BELOW 12,000 FEET WITH NO
SIGNIFICANT WEATHER AND/OR OBSTRUCTIONS TO VISIBILITY.

NVZ001-003-004-180200-
WESTERN NEVADA

CITY           SKY/WX    TMP DP  RH WIND       PRES   REMARKS
RENO           CLOUDY    71  36  27 W16       29.81R
CARSON CITY    FAIR      66  37  34 SW16      29.87R
MINDEN         SUNNY     68  34  28 W16       29.86R
FALLON         CLOUDY    77  28  16 W13       29.74S
LOVELOCK       PTSUNNY   78  27  15 S10       29.72F
HAWTHORNE      SUNNY     77  25  14 SW15      29.76F
$$

NVZ002-CAZ072-073-180200-
NORTHERN AND CENTRAL SIERRA

CITY           SKY/WX    TMP DP  RH WIND       PRES   REMARKS
S. LAKE TAHOE  PTSUNNY   62  34  35 SW9G21    29.94R
SQUAW VLY 8000   N/A     45  34  65 VRB10       N/A
BLUE CANYON    MOSUNNY   60  36  40 S8G18     29.96R
MAMMOTH LAKES  FAIR      63  23  22 S15G29    29.97S
BRIDGEPORT     FAIR      62  26  25 SW18G25   29.93F
$$

NVZ030-031-036-180200-
NORTHERN NEVADA

CITY           SKY/WX    TMP DP  RH WIND       PRES   REMARKS
ELKO           MOSUNNY   74  25  16 SW9       29.76F
WINNEMUCCA     MOSUNNY   73  27  18 SW14      29.74F
WENDOVER       SUNNY     72  27  18 E9        29.82F
$$

NVZ035-037-180200-
CENTRAL NEVADA

CITY           SKY/WX    TMP DP  RH WIND       PRES   REMARKS
ELY            MOSUNNY   69  23  17 S16G25    29.91F
EUREKA           N/A     74  18  12 S21G28    29.82F
$$

NVZ013-014-180200-
SOUTH CENTRAL NEVADA

CITY           SKY/WX    TMP DP  RH WIND       PRES   REMARKS
TONOPAH        PTSUNNY   72  21  14 S23G31    29.87S
$$

NVZ017-020-022-180200-
SOUTHERN NEVADA

CITY           SKY/WX    TMP DP  RH WIND       PRES   REMARKS
LAS VEGAS      PTSUNNY   88  19   8 S17G25    29.72S
N. LAS VEGAS   PTSUNNY   88  19   8 SW16      29.74F
NELLIS AFB     PTSUNNY   88  20   8 S24       29.73S
HENDERSON      PTSUNNY   86  17   8 S18       29.79S
MERCURY        PTSUNNY   82  20  10 SW18      29.80S
$$



USA.gov is the U.S. government's official web portal to all federal, state and local government web resources and services.